Location: Kaltenbach
(49.2000°N, 7.7500°E)
Time: 13:36:18
(UTC+00:00)

NOAA 11 - Pass Details

Date: 24 January 2020
Orbit: 832 x 850 km, 98.4° (Epoch: 27 February)

Event Time Altitude Azimuth Distance (km) Brightness Sun altitude
Rises 17:52:41 0° 161° (SSE) 3,403 7.3 -16.3°
Reaches altitude 10° 17:55:02 10° 161° (SSE) 2,470 6.5 -16.7°
Maximum altitude 18:00:32 85° 75° (ENE) 858 4.1 -17.5°
Drops below altitude 10° 18:06:03 10° 347° (NNW) 2,479 6.7 -18.4°
Sets 18:08:25 0° 347° (NNW) 3,415 7.4 -18.8°
